Find Starlink 11409

NORAD ID: 63061 Int'l Des: 2025-035 Owner: SPXS Country: US Constellation: starlink operational
LEOCIRCULAR

現在のビュー

3D地球を読み込み中...

About Starlink 11409

Starlink 11409 (NORAD 63061) is a starlink constellation satellite (v2 mini d2c) launched Feb 21, 2025 by SPXS of US. It operates in LEO, CIRCULAR orbit with a mass of 960.00 kg.

Starlink 11409について

説明を読み込み中...

次回通過

Passes for default location (London). Set your location on the main map for personalized predictions.

高度履歴

Loading altitude history...

軌道要素

1 63061U 25035K 26195.82235102 .00148181 00000-0 11353-2 0 9995
2 63061 43.0008 329.1945 0002902 286.5688 73.4860 15.70890871 81218
Epoch: Jul 14, 2026 • Age: 9 hours

現在のステータス

高度 356.4 km
遠地点 / 近地点 N/A
速度 7.70 km/s
衛星直下点 -9.11°S, 48.53°W
打ち上げ日 Feb 21, 2025
運用期間 1.3 years
タイプ internet

技術仕様

分類 Payload
質量 960.00 kg
乾燥質量 910.00 kg
総質量 960.00 kg
長さ 0.30 m
直径 4.10 m
スパン 29.00 m
形状 Box + pan
製造者 SPXS
バスタイプ Starlink V2MD
フェーズステータス In Orbit
所有者/国 SPXS/US

Most Searched